CDT,Max TemperatureF,Mean TemperatureF,Min TemperatureF,Max Dew PointF,MeanDew PointF,Min DewpointF,Max Humidity, Mean Humidity, Min Humidity, Max Sea Level PressureIn, Mean Sea Level PressureIn, Min Sea Level PressureIn, Max VisibilityMiles, Mean VisibilityMiles, Min VisibilityMiles, Max Wind SpeedMPH, Mean Wind SpeedMPH, Max Gust SpeedMPH,PrecipitationIn, CloudCover, Events, WindDirDegrees
2014-3-1,71,57,43,46,40,35,83,58,33,30.22,30.15,30.10,10,10,9,7,3,,0.00,3,,115
2014-3-2,75,58,42,55,44,38,100,78,26,30.21,30.06,29.65,10,6,0,12,2,17,0.00,3,Fog,181
2014-3-3,66,52,37,64,49,32,100,85,69,30.14,29.92,29.60,10,8,2,17,8,26,0.06,7,Rain,288
2014-3-4,45,41,37,41,36,30,92,82,76,30.14,30.10,30.06,10,9,6,14,7,,0.03,8,Rain,21
2014-3-5,61,50,39,46,41,37,93,80,52,30.14,30.07,29.99,10,9,6,10,7,,0.01,5,Rain,67
2014-3-6,50,44,39,48,42,35,97,88,80,30.05,29.94,29.89,10,9,4,16,10,25,0.19,8,Rain,59
2014-3-7,60,48,37,47,40,35,93,77,51,30.04,29.98,29.91,10,9,5,13,7,,0.00,6,,10
2014-3-8,68,52,37,48,42,34,97,78,45,30.18,30.12,30.04,10,8,2,9,1,,0.00,2,,216
2014-3-9,73,60,46,51,48,44,96,68,35,30.18,30.02,29.77,10,10,8,9,2,,0.00,0,,275
2014-3-10,78,62,46,52,48,44,93,63,34,30.09,29.79,29.62,10,10,6,12,3,16,0.00,0,,250
2014-3-11,75,64,54,59,54,50,93,75,45,29.78,29.56,29.43,10,9,5,9,3,,0.11,4,Rain,187
2014-3-12,70,58,46,62,56,29,97,81,50,30.02,29.62,29.34,10,9,4,22,7,34,0.01,7,Rain,263
2014-3-13,61,48,34,35,28,25,79,51,27,30.24,30.16,30.03,10,10,10,14,8,24,0.00,0,,332
2014-3-14,68,52,35,42,32,25,89,53,21,30.29,30.20,30.11,10,10,10,13,4,16,0.00,0,,144
2014-3-15,66,54,42,56,50,40,92,77,63,30.13,30.02,29.64,10,10,5,7,2,,0.00,6,Rain,68
2014-3-16,64,60,57,62,59,52,100,93,81,29.77,29.61,29.35,10,6,1,20,7,34,1.43,7,Rain-Thunderstorm,178
2014-3-17,62,56,48,59,56,48,100,94,82,29.78,29.64,29.31,10,7,1,12,6,20,0.46,8,Rain,259
2014-3-18,60,53,46,49,47,46,97,88,67,30.02,29.89,29.72,10,7,2,10,5,,0.16,7,Rain,16
2014-3-19,71,61,51,51,48,45,96,75,41,30.15,30.02,29.70,10,10,10,7,4,,0.00,5,,155
2014-3-20,77,62,46,53,45,34,97,63,27,30.09,29.88,29.67,10,8,2,10,2,,0.00,0,,347
2014-3-21,75,58,41,52,39,31,86,49,24,30.12,29.84,29.70,10,10,10,8,4,,0.00,0,,78
2014-3-22,78,64,51,56,50,45,100,72,31,30.09,29.82,29.64,10,7,0,10,1,18,0.00,2,Fog,220
2014-3-23,71,63,55,60,56,43,100,83,61,30.12,29.90,29.65,10,7,0,17,4,24,0.06,6,Fog-Rain,318
2014-3-24,66,58,50,49,41,34,77,54,40,30.12,29.96,29.75,10,10,10,14,9,22,0.00,5,,66
2014-3-25,61,53,43,50,28,18,80,41,20,30.19,29.97,29.61,10,10,8,24,8,34,0.00,1,,321
2014-3-26,57,44,30,32,20,12,75,43,18,30.35,30.26,30.21,10,10,9,13,5,17,0.00,0,,7
2014-3-27,70,54,39,53,41,27,81,59,38,30.26,30.17,29.79,10,10,7,14,5,26,0.00,3,,136
2014-3-28,62,60,57,59,57,53,100,91,75,30.11,29.96,29.54,10,6,1,18,7,33,2.12,7,Rain-Thunderstorm,109
2014-3-29,72,62,53,60,54,39,100,81,49,30.01,29.79,29.57,10,7,0,15,5,24,0.68,5,Fog-Rain-Thunderstorm,273
2014-3-30,71,57,43,41,37,31,82,56,24,30.16,30.10,30.06,10,10,10,15,7,23,0.00,0,,318
2014-3-31,78,58,37,43,36,24,89,50,14,30.15,30.04,29.75,10,10,10,7,2,,0.00,0,,186